Погода Усть-Кулом

Погода Усть-Кулом : погода сейчас, прогноз погоды и архив. Всё, что Вы хотите узнать о погоде Усть-Кулом!

Поиск расширенной информации на нашем сайте:

Другие новости

Новости СМИ2

Главная страница сайта

Новости сайта

03.07.2017

Напоминаем, что на нашем специализированном сайте Метеоцентр.Азия вы можете получить высокодетализированные автоматические прогнозы погоды по пунктам России, СНГ и мира в авиационном формате (включающие направление и скорость ветра, видимость, явления погоды, количество и форму облачности, нижнюю и верхнюю границу облачности).


Погода Усть-Кулом - сегодня

Время (UTC), дата Ветер
(°,м/с) 
Видим.   Явления Облачность Т
(°С)
Тd
(°С)
f(%) Тe
(°С)
Pmin
(гПа)
dP
(гПа)
Po
(мм)
O2
(г/м3)
Тmin Tmax R s Состояние
почвы
15 14.10.17 090 (В) 20000 м    10/10 330 м 
[St]
+4.8 +3.6 92 +4  1013.8  -0.1  747  295    +6.1       
18 14.10.17 110 (В) н/о    н/о 
+4.9 +3.8 93 +6  1014.1  -0.4  747  295           
21 14.10.17 080 (В) н/о    н/о 
+3.8 +3.2 96 +3  1013.3  -0.9  747  296           
00 15.10.17 100 (В) н/о    н/о 
+3.7 +2.7 93 +3  1012.3  -0.9  746  296           
03 15.10.17 080 (В) н/о    н/о 
+4.1 +3.3 95 +5  1011.5  -0.7  745  295  +3.4         
06 15.10.17 110 (В) 20000 м    10/8 750 м средняя 
[Sc|Ac und]
+5.7 +4.4 91 +5  1009.5  -1.3  744  293           
09 15.10.17 120 (ЮВ) 20000 м    10/4 1000 м средняя 
[Sc|Ac und]
+8 +4 76 +7  1008.5  -0.8  743  290           
12 15.10.17 110 (В) 20000 м    10/0 средняя 
[Ac und]
+10.5 +3.1 60 +10  1007.7  -0.6  743  288           
15 15.10.17 100 (В) 20000 м    10/10 330 м 
[St]
+8.4 +2.4 66 +8  1007.9  743  290    +10.5       
18 15.10.17 100 (В) 20000 м    10/10 330 м 
[St]
+7.6 +1.5 65 +7  1008.2  0.2  743  291           
21 15.10.17 100 (В) 20000 м    10/10 360 м 
[St]
+7.1 +1 65 +6  1008.8  0.6  743  292           
00 16.10.17 110 (В) 20000 м  в посл. час дождь  10/10 700 м 
[Ns]
+6.5 +1.6 71 +6  1009.4  0.6  744  293           
03 16.10.17 100 (В) 10 км  слаб. дождь  10/10 400 м 
[Ns]
+5.5 +2.9 83 +5  1010.6  745  294  +5.5    0.6     
06 16.10.17 110 (В) 10 км  слаб. дождь  10/10 570 м 
[Ns]
+5.6 +2.7 82 +5  1011.2  0.6  745  294  +5.3         
09 16.10.17 120 (ЮВ) 20000 м  {дождь}  10/10 700 м 
[Ns]
+6.2 +3.3 82 +5  1011.8  0.7  746  293           
12 16.10.17 130 (ЮВ) 20000 м  {дождь}  10/10 720 м кучево-дожд. 
[Cb cap]
+5.9 +3.1 82 +5  1012  0.2  746  294           
15 16.10.17 110 (В) 20000 м    10/10 1050 м 
[Sc diur, vesp]
+5.5 +4 90 +5  1012.5  0.4  746  294    +6.2  0.3     
18 16.10.17 120 (ЮВ) 10 км  слаб. дождь  10/10 570 м 
[Ns]
+5.1 +4.4 95 +5  1011.8  -0.7  746  294           
21 16.10.17 120 (ЮВ) 10 км  слаб. дождь  10/10 330 м 
[Frnb|Ns]
+5.3 +4.8 97 +5  1009.6  -2.1  744  293           
00 17.10.17 150 (ЮВ) 20000 м  в посл. час дождь  10/10 420 м 
[Ns]
+6.3 +5.8 97 +6  1007.1  -2.4  742  291           
03 17.10.17 160 (Ю) 20000 м    10/10 300 м 
[St]
+6.2 +5.5 95 +5  1005.3  -2.4  741  291  +5.1       
06 17.10.17 160 (Ю) 4000 м  дымка  10/10 240 м 
[St]
+6.2 +5.4 95 +5  1001.8  -2.9  738  290           
09 17.10.17 170 (Ю) 4000 м  дымка{дождь}  10/10 210 м 
[St]
+6.5 +5.7 95 +5  1000  -1.8  737  289           
12 17.10.17 160 (Ю) 4000 м  слаб. дождь{морось}  10/10 300 м 
[Frnb|Ns]
+6.5 +5.7 95 +5  997.5  -2.4  735  288           
15 17.10.17 190 (Ю) 4{12}  20000 м  {дождь}  10/10 660 м 
[Ns]
+5 +3.5 90 +3  997  -0.6  735  290    +6.7     
Время (UTC), дата Ветер
(°,м/с) 
Видим.   Явления Облачность Т
(°С)
Тd
(°С)
f(%) Тe
(°С)
Pmin
(гПа)
dP
(гПа)
Po
(мм)
O2
(г/м3)
Тmin Tmax R s Состояние
почвы

Для получения пояснительной информации подведите курсор к названию столбца.

ПОГОДА Усть-Кулом - архив

Всё, что Вы хотите узнать о погоде Усть-Кулом - удобно и подробно!

Выберите нужную дату (начиная с 1 января 2015* года) и нажмите кнопку "Найти".
Будут отображены архивные сводки погоды по пункту Усть-Кулом, начиная с указанной даты.


Отображать данные в формате CSV (для использования в таблицах Excel)


Внимание! Наш архив погоды предназначен исключительно для личного некоммерческого использования в познавательных целях. Если Вам необходимы официальные справки о состоянии погоды (для производственных, юридических, коммерческих и т.п. целей), обращайтесь в органы Росгидромета.

*Примечание: данная дата относится к архиву по метеостанциям СССР (Россия, СНГ, Балтия).
Архив по метеостанциям Зарубежной Европы и Азии (кроме Китая) хранится 10 дней, по другим регионам земного шара (Китай, Африка, Америка, Австралия, Океания) - 1 день.

Усть-Кулом - район местоположения метеостанции


Название, широта, долгота, высота метеостанции:
Усть-Кулом 61.7°ш. 53.7°д. 144 м над ур. моря [Российская Федерация]

Дополнительная информация

В oтличие oт бoльшинства пoгoдных сайтoв мы публикуем пoдрoбную метеoинфoрмацию в детальнoм прoфессиoнальнoм фoрмате.

Характеристики температуры и влажнoсти вoздуха измеряются на высoте 2 м в тени вдали oт зданий и деревьев.
Скoрoсть ветра измеряется на высoте 10 м (на урoвне рoста челoвека скoрoсть ветра ниже в 1.5-2 раза). Если метеoстанция нахoдится в гoрoде или в лесу, тo скoрoсть ветра занижена на 2-4 м/с пo сравнению с oткрытым местoм. Скoрoсть ветра над акватoриями крупных рек и oзёр, а также на вершинах хoлмoв на 2-5 м/с выше, чем в oбычных услoвиях.
Атмoсфернoе давление в разных тoчках местнoсти мoжет значительнo oтличаться oт давления на метеoстанции, в зависимoсти oт услoвий рельефа (при пoдъёме на 10 м давление пoнижается примернo на 1 мм рт.ст.).